OE3JSI-13 Weather Reports


time (UTC)temp
C
wind
direction
speed
KPH
gust
KPH
rain 1hr
cm
rain 24hr
cm
rain mn
cm
humidity
%
barometer
mb
20260505203403 20 0.0 0.0 0.00 0.00 0.00 51 1005.9
20260505202357 21 0.0 0.0 0.00 0.00 0.00 50 1006.7
20260505201352 22 0.0 0.0 0.00 0.00 0.00 49 1006.2
20260505200347 22 0.0 0.0 0.00 0.00 0.00 49 1006.1
20260505195341 21 0.0 0.0 0.00 0.00 0.00 49 1005.9
20260505194336 21 0.0 0.0 0.00 0.00 0.00 48 1005.0
20260505193331 22 0.0 0.0 0.00 0.00 0.00 48 1005.7
20260505192325 22 0.0 0.0 0.00 0.00 0.00 48 1005.9
20260505191320 22 0.0 0.0 0.00 0.00 0.00 48 1005.7
20260505190315 22 0.0 0.0 0.00 0.00 0.00 48 1004.8
20260505185309 22 0.0 0.0 0.00 0.00 0.00 48 1005.5
20260505184304 22 0.0 0.0 0.00 0.00 0.00 47 1005.5
20260505183259 22 0.0 0.0 0.00 0.00 0.00 47 1005.5
20260505182253 23 0.0 0.0 0.00 0.00 0.00 47 1005.3
20260505181248 23 0.0 0.0 0.00 0.00 0.00 46 1005.2
20260505180243 23 0.0 0.0 0.00 0.00 0.00 46 1005.1
20260505175237 23 0.0 0.0 0.00 0.00 0.00 46 1004.5
20260505174232 24 0.0 0.0 0.00 0.00 0.00 45 1005.4
20260505173227 24 0.0 0.0 0.00 0.00 0.00 45 1005.2
20260505172221 24 0.0 0.0 0.00 0.00 0.00 45 1004.4
20260505171216 25 0.0 0.0 0.00 0.00 0.00 44 1005.1
20260505170211 25 0.0 0.0 0.00 0.00 0.00 44 1005.3
20260505165205 25 0.0 0.0 0.00 0.00 0.00 44 1005.3
20260505164200 25 0.0 0.0 0.00 0.00 0.00 43 1005.5
20260505163155 25 0.0 0.0 0.00 0.00 0.00 43 1005.4
20260505162149 25 0.0 0.0 0.00 0.00 0.00 43 1005.4
20260505161144 25 0.0 0.0 0.00 0.00 0.00 42 1004.8
20260505160139 26 0.0 0.0 0.00 0.00 0.00 42 1005.5
20260505153123 26 0.0 0.0 0.00 0.00 0.00 41 1005.7
20260505152117 26 0.0 0.0 0.00 0.00 0.00 40 1005.0
20260505151112 26 0.0 0.0 0.00 0.00 0.00 40 1004.9
20260505150107 26 0.0 0.0 0.00 0.00 0.00 39 1005.7
20260505124957 27 0.0 0.0 0.00 0.00 0.00 35 1006.6
20260505123952 27 0.0 0.0 0.00 0.00 0.00 37 1006.9
20260505122946 27 0.0 0.0 0.00 0.00 0.00 36 1007.2
20260505121941 27 0.0 0.0 0.00 0.00 0.00 38 1007.4
20260505120936 26 0.0 0.0 0.00 0.00 0.00 38 1007.3
20260505115930 26 0.0 0.0 0.00 0.00 0.00 41 1007.7
20260505114925 25 0.0 0.0 0.00 0.00 0.00 41 1007.1
20260505113919 25 0.0 0.0 0.00 0.00 0.00 44 1008.1
20260505112914 25 0.0 0.0 0.00 0.00 0.00 46 1007.6
20260505111909 25 0.0 0.0 0.00 0.00 0.00 48 1008.5
20260505110903 23 0.0 0.0 0.00 0.00 0.00 46 1008.0
20260505101837 23 0.0 0.0 0.00 0.00 0.00 47 1009.6
20260505100831 22 0.0 0.0 0.00 0.00 0.00 47 1009.0
20260505095826 22 0.0 0.0 0.00 0.00 0.00 48 1009.9
20260505094821 22 0.0 0.0 0.00 0.00 0.00 48 1010.2
20260505093815 22 0.0 0.0 0.00 0.00 0.00 49 1010.1
20260505092810 22 0.0 0.0 0.00 0.00 0.00 49 1010.1
20260505091805 22 0.0 0.0 0.00 0.00 0.00 49 1009.6
20260505090759 22 0.0 0.0 0.00 0.00 0.00 50 1010.4
20260505085754 22 0.0 0.0 0.00 0.00 0.00 52 1010.5
20260505084749 21 0.0 0.0 0.00 0.00 0.00 53 1009.8
20260505083743 21 0.0 0.0 0.00 0.00 0.00 55 1009.9
20260505082738 21 0.0 0.0 0.00 0.00 0.00 55 1010.9
20260505081733 21 0.0 0.0 0.00 0.00 0.00 55 1011.0
20260505080727 20 0.0 0.0 0.00 0.00 0.00 55 1010.9
20260505075722 20 0.0 0.0 0.00 0.00 0.00 54 1010.2
20260505074717 20 0.0 0.0 0.00 0.00 0.00 54 1011.1
20260505073711 20 0.0 0.0 0.00 0.00 0.00 54 1011.3
20260505072706 20 0.0 0.0 0.00 0.00 0.00 54 1011.4
20260505071701 19 0.0 0.0 0.00 0.00 0.00 54 1011.3
20260505070655 18 0.0 0.0 0.00 0.00 0.00 55 1010.6
20260505065650 19 0.0 0.0 0.00 0.00 0.00 56 1011.5
20260505064645 18 0.0 0.0 0.00 0.00 0.00 57 1010.6
20260505063639 18 0.0 0.0 0.00 0.00 0.00 60 1011.4
20260505062634 17 0.0 0.0 0.00 0.00 0.00 60 1010.7
20260505061629 17 0.0 0.0 0.00 0.00 0.00 61 1011.5
20260505060623 17 0.0 0.0 0.00 0.00 0.00 60 1011.7
20260505055618 17 0.0 0.0 0.00 0.00 0.00 60 1010.6
20260505054612 17 0.0 0.0 0.00 0.00 0.00 60 1011.6
20260505053607 17 0.0 0.0 0.00 0.00 0.00 62 1011.7
20260505052602 16 0.0 0.0 0.00 0.00 0.00 61 1011.6
20260505051557 16 0.0 0.0 0.00 0.00 0.00 61 1011.4
20260505050551 16 0.0 0.0 0.00 0.00 0.00 61 1011.5
20260505041524 15 0.0 0.0 0.00 0.00 0.00 61 1011.1
20260505040519 14 0.0 0.0 0.00 0.00 0.00 60 1011.2
20260505035514 13 0.0 0.0 0.00 0.00 0.00 58 1010.3
20260505034509 15 0.0 0.0 0.00 0.00 0.00 59 1011.4
20260505033503 14 0.0 0.0 0.00 0.00 0.00 59 1010.2
20260505032458 15 0.0 0.0 0.00 0.00 0.00 59 1011.4
20260505031452 15 0.0 0.0 0.00 0.00 0.00 58 1011.4
20260505030447 15 0.0 0.0 0.00 0.00 0.00 59 1011.2
20260505025442 15 0.0 0.0 0.00 0.00 0.00 58 1010.4
20260505024436 15 0.0 0.0 0.00 0.00 0.00 57 1011.5
20260505023431 16 0.0 0.0 0.00 0.00 0.00 56 1011.3
20260505022426 16 0.0 0.0 0.00 0.00 0.00 56 1011.5
20260505021420 16 0.0 0.0 0.00 0.00 0.00 57 1011.4
20260505020415 16 0.0 0.0 0.00 0.00 0.00 57 1011.4
20260505015410 16 0.0 0.0 0.00 0.00 0.00 57 1011.7
20260505014404 16 0.0 0.0 0.00 0.00 0.00 56 1010.9
20260505013359 17 0.0 0.0 0.00 0.00 0.00 54 1011.9
20260505012354 17 0.0 0.0 0.00 0.00 0.00 55 1011.8
20260505011348 17 0.0 0.0 0.00 0.00 0.00 55 1010.9
20260505010343 17 0.0 0.0 0.00 0.00 0.00 55 1011.7
20260505005338 17 0.0 0.0 0.00 0.00 0.00 53 1010.8
20260505004332 17 0.0 0.0 0.00 0.00 0.00 55 1011.9
20260505003327 16 0.0 0.0 0.00 0.00 0.00 55 1010.8
20260505002322 17 0.0 0.0 0.00 0.00 0.00 54 1010.8
20260505001316 17 0.0 0.0 0.00 0.00 0.00 55 1011.7
20260505000311 17 0.0 0.0 0.00 0.00 0.00 53 1011.7
20260504235306 18 0.0 0.0 0.00 0.00 0.00 52 1011.6
20260504234300 18 0.0 0.0 0.00 0.00 0.00 52 1011.7
20260504233255 18 0.0 0.0 0.00 0.00 0.00 50 1011.7
20260504232250 19 0.0 0.0 0.00 0.00 0.00 50 1011.7
20260504231244 18 0.0 0.0 0.00 0.00 0.00 50 1010.9
20260504230239 20 0.0 0.0 0.00 0.00 0.00 49 1011.8
20260504225233 20 0.0 0.0 0.00 0.00 0.00 47 1011.8
20260504224228 21 0.0 0.0 0.00 0.00 0.00 47 1012.0
20260504223223 21 0.0 0.0 0.00 0.00 0.00 47 1011.8
20260504222217 21 0.0 0.0 0.00 0.00 0.00 46 1011.9
20260504221212 22 0.0 0.0 0.00 0.00 0.00 45 1012.0
20260504220207 22 0.0 0.0 0.00 0.00 0.00 45 1011.9
20260504215201 22 0.0 0.0 0.00 0.00 0.00 45 1012.0
20260504214156 22 0.0 0.0 0.00 0.00 0.00 45 1011.1
20260504213151 22 0.0 0.0 0.00 0.00 0.00 44 1011.1
20260504212145 22 0.0 0.0 0.00 0.00 0.00 43 1011.9
20260504211140 22 0.0 0.0 0.00 0.00 0.00 43 1011.9
20260504210135 23 0.0 0.0 0.00 0.00 0.00 43 1012.1
20260504205129 23 0.0 0.0 0.00 0.00 0.00 43 1012.0
20260504204124 22 0.0 0.0 0.00 0.00 0.00 42 1011.2